FENGYUN 1C DEB, 30404

Orbit data source: Space-Track

FENGYUN 1C DEB, 30404 is space debris in SSO originally from a launch on Mon, 10 May 1999 UTC launched from the Taiyaun Space Center, China (TSC). Fengyun 1C debris stems from the Chinese weather satellite Fengyun-1C, which was intentionally destroyed by a Chinese anti-satellite missile in 2007. This event dramatically increased the amount of space debris, with thousands of trackable fragments posing hazards to satellites and human spaceflight. The Fengyun 1C debris cloud has become a focal point in discussions about space sustainability and the need for international regulations to prevent the creation of new debris.

Loading next visibility...
Identifier
30404, 1999-025ADT
Orbit
SSO
Country
Flag of CNCN / PRC
Related business
Manufacturer
Unknown
Mission
Spacecraft
Bus & Motor
Unknown
Mass
Unknown
Launch date (UTC)
1999-05-10 (27 years ago)
Launch vehicle
Unknown
Launch site
Taiyaun Space Center, China (TSC)
Object type
Payload
Rocket body
Debris
Shape & HBR
Unknown shape, 0.1 m
Radar Cross Section
Small (<0.1 m²)

Expand to show TLE details & history
Last TLE update: 5 hours ago

TLE from 5 hours ago
0 FENGYUN 1C DEB
1 30404U 99025ADT 26071.69458855  .00001044  00000-0  14618-2 0  9993
2 30404  99.8246 165.1074 0375613 279.0242  76.8562 13.34464931592363
Epoch: 2026-03-12T16:40Z
TLE epoch observation values (Epoch: 2026-03-12T16:40:12.450Z)
Latitude
-0.00005°
Longitude
104.71474°
Altitude
1,078.762 km
Speed
7.339 km/s
True Right ascension
11h 00m 25s
True Declination
0° 00' 00"
Sunlit
Object was in full shadow at epoch
Visualization orbit readout
Latitude
Unknown
Longitude
Unknown
Altitude
Unknown
Speed
Unknown
Apparent Right ascension
Unknown
Apparent Declination
Unknown
Sunlit
N/A
Visualization observer readout
Local Sidereal Time
02:06:07
Azimuth
Unknown
Elevation
Unknown
Doppler factor
Unknown
Orbital elements
Apogee altitude
1,409.206 km
Perigee altitude
845.378 km
Semi-major axis
7,505.429 km
Eccentricity
0.03756
Inclination
99.8246°
RAAN
165.1074°
Arg. of periapsis
279.0242°
True anomaly
81.089°
Mean anomaly
76.8562°
Eccentric anomaly
78.96854°
Mean motion
3.33795 °/min
Orbital period
107.85 mins
BSTAR
0.0014618
Loading maneuver chart data...
Computing Atmospheric mass density...

Documentation

Showing up to 5 results
|